Weather in Luwuk

Indonesia     1°05′35″S   122°43′27″E
temp.,
°C
wind,
m/s
gust,
m/s
humid.,
%
clouds,
%
prec.,
mm/h
press.,
hPa
HPBL,
m
26 february, fri
fri2623:00+22nnw129075 0.8 100876
02:00+22nw128487 2.0 100628
05:00+22w118499 0.0 100628
08:00+25s017858 0.1 1009343
11:00+26se217732 0.8 1007569
14:00+27sse118056 4.4 1005537
17:00+26ese118390 1.3 1005323
20:00+23nnw119248 2.7 1007107
27 february, sat
sat2723:00+22nnw129122 3.7 1009108
02:00+22nw228945 3.8 100753
05:00+22nw228790 0.0 100653
08:00+25e007373 0.0 1009426
11:00+28ese216857 1.1 1008789
14:00+27ene118278 7.0 1006457
17:00+25ene129099 2.8 1005273
20:00+23nnw229183 5.6 100889
28 february, sun
sun2823:00+22nw338929 0.3 100966
02:00+22nw338827 0.3 100769
05:00+22nw228634 0.0 100846
08:00+26n017132 0.0 1009274
11:00+28ese12731 2.9 1009602
14:00+27ese018131 10.7 1007355
17:00+25ne118998 5.6 1006181
20:00+22nw228999 8.6 100943
1 march, mon
mon123:00+21nw3385100 0.3 101070
02:00+21nw3384100 0.3 100866
05:00+22nw2281100 0.0 100946
08:00+25nne0171100 0.0 1011244
11:00+27ese1270100 0.3 1010667
14:00+29nne1356100 1.1 10081231
17:00+26ne1470100 0.1 1008541
20:00+22nw337298 0.1 101076
2 march, tue
tue223:00+22nw337794 0.0 101187
02:00+23nw227695 0.0 100982
05:00+22nw227683 0.0 100958
08:00+25n126578 0.0 1011251
11:00+29e135473 0.0 10111059
14:00+30ne135654 0.5 10081139
17:00+27n246644 0.3 1008531
20:00+23nw347172 0.3 1010116